Location: Molveno
(46.1500°N, 10.9667°E)
Time: 17:04:28
(UTC+00:00)

Cosmos 2366 rocket - Pass Details

Date: 05 July 2020
Orbit: 954 x 998 km, 82.9° (Epoch: 10 August)

Event Time Altitude Azimuth Distance (km) Brightness Sun altitude
Exits shadow 22:56:31 38° 177° (S) 1,471 4.4 -21.0°
Maximum altitude 22:59:08 80° 96° (E) 1,017 4.0 -21.0°
Drops below altitude 10° 23:05:31 10° 11° (N) 2,772 7.5 -21.1°
Sets 23:08:02 0° 10° (N) 3,721 8.5 -21.1°
